Weather History for KJAS - December, 2011

Change the Weather History Date:

Wednesday, December 7, 2011

  Actual Average (KLFK) Record (KLFK)
Temperature  
Mean Temperature 40 °F 52 °F  
Max Temperature 47 °F 63 °F 86 °F (1924)
Min Temperature 32 °F 41 °F 12 °F (1950)
Degree Days  
Heating Degree Days 26 14  
Month to date heating degree days 92  
Since 1 July heating degree days 399  
Cooling Degree Days 0 0  
Month to date cooling degree days 4  
Year to date cooling degree days 2587  
Moisture  
Dew Point 28 °F    
Average Humidity 67    
Maximum Humidity 87    
Minimum Humidity 42    
Precipitation  
Precipitation 0.00 in 0.16 in 1.74 in (1927)
Month to date precipitation 1.09  
Year to date precipitation 45.60  
Snow  
Snow 0.00 in - - ()
Month to date snowfall  
Since 1 July snowfall  
Snow Depth -    
Sea Level Pressure  
Sea Level Pressure 30.36 in    
Wind  
Wind Speed 8 mph (WNW)    
Max Wind Speed 16 mph    
Max Gust Speed 21 mph    
Visibility 10 miles    
Events      
T = Trace of Precipitation, MM = Missing Value Source: NWS Daily Summary

Daily Weather History Graph

Daily Weather History Graph

Search for Another Location

Airport or City:

Trip Planner

Search our weather history database for the weather conditions in past years. The results will help you decide how hot, cold, wet, or windy it might be!

Date:

Astronomy

Dec. 07, 2011 Rise Set
Actual Time 7:00 AM CST 5:14 PM CST
Civil Twilight 6:34 AM CST 5:40 PM CST
Nautical Twilight 6:04 AM CST 6:10 PM CST
Astronomical Twilight 5:35 AM CST 6:40 PM CST
Moon 3:11 PM CST (12/7) 4:21 AM CST (12/7)
Length of Visible Light 11h 06m
Length of Day
10h 13m
Waxing Gibbous, 92% of the Moon is Illuminated
Dec 7
Waxing Gibbous
Dec 10
Full
Dec 17
Last Quarter
Dec 24
New
Jan 1
First Quarter

Hourly Weather History & Observations

Time (CST) Temp. Windchill Dew Point Humidity Pressure Visibility Wind Dir Wind Speed Gust Speed Precip Events Conditions
12:15 AM 36.7 °F 32.0 °F 31.3 °F 81% 30.31 in 10.0 mi WNW 5.8 mph - N/A   Scattered Clouds
12:35 AM 35.8 °F 30.9 °F 31.1 °F 83% 30.31 in 10.0 mi West 5.8 mph - N/A   Scattered Clouds
12:55 AM 35.1 °F 30.1 °F 31.1 °F 85% 30.31 in 10.0 mi West 5.8 mph - N/A   Mostly Cloudy
1:15 AM 35.4 °F 29.7 °F 30.9 °F 84% 30.31 in 10.0 mi West 6.9 mph - N/A   Overcast
1:35 AM 35.2 °F 27.6 °F 30.4 °F 82% 30.32 in 10.0 mi West 10.4 mph - N/A   Overcast
1:55 AM 34.3 °F 27.0 °F 30.0 °F 84% 30.32 in 10.0 mi WNW 9.2 mph - N/A   Overcast
2:15 AM 33.8 °F 27.0 °F 30.0 °F 86% 30.33 in 10.0 mi West 8.1 mph - N/A   Overcast
2:35 AM 33.8 °F 27.0 °F 30.2 °F 87% 30.33 in 10.0 mi West 8.1 mph - N/A   Overcast
2:55 AM 33.8 °F 25.8 °F 30.0 °F 86% 30.33 in 10.0 mi West 10.4 mph - N/A   Overcast
3:15 AM 34.0 °F 27.2 °F 29.8 °F 85% 30.34 in 10.0 mi West 8.1 mph - N/A   Overcast
3:35 AM 34.0 °F 26.6 °F 29.1 °F 82% 30.33 in 10.0 mi West 9.2 mph - N/A   Overcast
3:55 AM 34.0 °F 23.8 °F 28.6 °F 81% 30.34 in 10.0 mi WNW 16.1 mph 20.7 mph N/A   Overcast
4:15 AM 34.2 °F 26.8 °F 27.7 °F 77% 30.34 in 10.0 mi WNW 9.2 mph 17.3 mph N/A   Overcast
4:35 AM 34.2 °F 26.8 °F 27.7 °F 77% 30.34 in 10.0 mi WNW 9.2 mph 17.3 mph N/A   Overcast
4:55 AM 34.0 °F 26.0 °F 27.5 °F 77% 30.35 in 10.0 mi WNW 10.4 mph 16.1 mph N/A   Overcast
5:15 AM 33.8 °F 24.8 °F 27.0 °F 76% 30.35 in 10.0 mi WNW 12.7 mph 18.4 mph N/A   Overcast
5:35 AM 33.8 °F 27.0 °F 27.1 °F 77% 30.36 in 10.0 mi WNW 8.1 mph - N/A   Overcast
5:55 AM 33.8 °F 25.8 °F 27.3 °F 77% 30.36 in 10.0 mi WNW 10.4 mph - N/A   Overcast
6:15 AM 33.6 °F 26.8 °F 27.1 °F 77% 30.36 in 10.0 mi WNW 8.1 mph - N/A   Overcast
6:35 AM 33.1 °F 26.9 °F 27.1 °F 79% 30.36 in 10.0 mi NW 6.9 mph - N/A   Mostly Cloudy
6:55 AM 32.4 °F 26.0 °F 27.0 °F 80% 30.35 in 10.0 mi NNW 6.9 mph - N/A   Scattered Clouds
7:15 AM 32.0 °F 28.7 °F 27.1 °F 82% 30.37 in 10.0 mi WNW 3.5 mph - N/A   Scattered Clouds
7:35 AM 32.0 °F 28.7 °F 27.5 °F 83% 30.38 in 10.0 mi West 3.5 mph - N/A   Scattered Clouds
7:55 AM 32.4 °F 27.9 °F 28.0 °F 84% 30.38 in 10.0 mi WNW 4.6 mph - N/A   Clear
8:15 AM 33.4 °F 25.9 °F 28.4 °F 82% 30.37 in 10.0 mi North 9.2 mph - N/A   Clear
8:35 AM 35.2 °F 29.5 °F 28.8 °F 77% 30.37 in 10.0 mi NNW 6.9 mph - N/A   Clear
8:55 AM 36.7 °F 29.9 °F 29.1 °F 74% 30.38 in 10.0 mi North 9.2 mph 17.3 mph N/A   Clear
9:15 AM 37.4 °F 30.3 °F 28.4 °F 70% 30.38 in 10.0 mi NNW 10.4 mph 17.3 mph N/A   Clear
9:35 AM 37.9 °F 31.5 °F 28.2 °F 68% 30.40 in 10.0 mi NNW 9.2 mph - N/A   Clear
9:55 AM 38.8 °F 31.2 °F 28.0 °F 65% 30.42 in 10.0 mi NNW 12.7 mph - N/A   Clear
10:15 AM 39.9 °F 35.1 °F 28.2 °F 63% 30.42 in 10.0 mi NW 6.9 mph 10.4 mph N/A   Clear
10:35 AM 40.8 °F 34.5 °F 28.4 °F 61% 30.43 in 10.0 mi NW 10.4 mph - N/A   Clear
10:55 AM 41.4 °F 35.7 °F 28.4 °F 60% 30.43 in 10.0 mi West 9.2 mph - N/A   Clear
11:15 AM 41.9 °F 35.9 °F 27.3 °F 56% 30.42 in 10.0 mi WNW 10.4 mph 16.1 mph N/A   Clear
11:35 AM 43.0 °F 38.2 °F 27.1 °F 54% 30.42 in 10.0 mi West 8.1 mph - N/A   Clear
11:55 AM 44.1 °F 39.5 °F 27.7 °F 53% 30.41 in 10.0 mi WNW 8.1 mph - N/A   Clear
12:15 PM 44.4 °F 40.0 °F 26.8 °F 50% 30.40 in 10.0 mi WNW 8.1 mph 19.6 mph N/A   Clear
12:35 PM 45.3 °F 41.1 °F 25.9 °F 47% 30.39 in 10.0 mi NW 8.1 mph - N/A   Clear
12:55 PM 45.9 °F 42.9 °F 26.4 °F 47% 30.38 in 10.0 mi NW 5.8 mph 16.1 mph N/A   Clear
1:15 PM 46.4 °F 41.1 °F 26.1 °F 45% 30.37 in 10.0 mi West 11.5 mph - N/A   Clear
1:35 PM 46.9 °F - 26.6 °F 45% 30.36 in 10.0 mi WNW 10.4 mph - N/A   Clear
1:55 PM 46.9 °F - 26.4 °F 45% 30.36 in 10.0 mi West 11.5 mph - N/A   Clear
2:15 PM 47.3 °F - 26.8 °F 45% 30.36 in 10.0 mi West 10.4 mph 16.1 mph N/A   Clear
2:35 PM 47.5 °F - 26.4 °F 44% 30.35 in 10.0 mi NW 12.7 mph - N/A   Clear
2:55 PM 47.5 °F - 25.7 °F 43% 30.36 in 10.0 mi West 9.2 mph - N/A   Clear
3:15 PM 47.8 °F - 25.7 °F 42% 30.35 in 10.0 mi NW 6.9 mph - N/A   Clear
3:55 PM 47.8 °F - 26.2 °F 43% 30.35 in 10.0 mi WNW 6.9 mph - N/A   Clear
4:15 PM 47.3 °F - 25.7 °F 43% 30.35 in 10.0 mi NNW 4.6 mph - N/A   Clear
4:35 PM 46.8 °F - 25.9 °F 44% 30.34 in 10.0 mi North 6.9 mph - N/A   Clear
4:55 PM 45.7 °F - 27.0 °F 48% 30.34 in 10.0 mi Calm Calm - N/A   Clear
5:15 PM 43.5 °F 41.9 °F 27.9 °F 54% 30.34 in 10.0 mi North 3.5 mph - N/A   Clear
5:35 PM 41.5 °F - 29.5 °F 62% 30.34 in 10.0 mi Calm Calm - N/A   Clear
5:55 PM 38.7 °F - 32.0 °F 77% 30.33 in 10.0 mi Calm Calm - N/A   Clear
6:15 PM 36.3 °F 33.7 °F 32.0 °F 84% 30.33 in 10.0 mi NE 3.5 mph - N/A   Clear
6:35 PM 35.4 °F - 32.2 °F 88% 30.33 in 10.0 mi Calm Calm - N/A   Clear
6:55 PM 35.1 °F - 31.8 °F 88% 30.34 in 10.0 mi Calm Calm - N/A   Clear
7:15 PM 34.5 °F - 31.6 °F 89% 30.34 in 10.0 mi Calm Calm - N/A   Clear
7:35 PM 33.4 °F - 31.6 °F 93% 30.34 in 10.0 mi Calm Calm - N/A   Clear
7:55 PM 32.7 °F - 31.6 °F 96% 30.35 in 7.0 mi Calm Calm - N/A   Clear
8:15 PM 32.2 °F - 30.9 °F 95% 30.36 in 10.0 mi Calm Calm - N/A   Clear
8:35 PM 31.6 °F - 30.7 °F 96% 30.36 in 10.0 mi Calm Calm - N/A   Clear
8:55 PM 31.5 °F - 30.9 °F 98% 30.37 in 10.0 mi Calm Calm - N/A   Clear
9:15 PM 31.3 °F - 30.9 °F 99% 30.37 in 10.0 mi Calm Calm - N/A   Clear
9:35 PM 30.9 °F - 30.6 °F 99% 30.38 in 7.0 mi Calm Calm - N/A   Clear
9:55 PM 30.7 °F - 30.2 °F 98% 30.38 in 7.0 mi Calm Calm - N/A   Clear
10:15 PM 30.4 °F - 30.0 °F 99% 30.38 in 7.0 mi Calm Calm - N/A   Clear
10:35 PM 30.4 °F - 30.0 °F 99% 30.37 in 5.0 mi Calm Calm - N/A   Clear
10:55 PM 30.2 °F - 30.0 °F 99% 30.38 in 5.0 mi Calm Calm - N/A   Clear
11:15 PM 30.0 °F - 29.8 °F 99% 30.38 in 5.0 mi Calm Calm - N/A   Clear
11:35 PM 30.0 °F - 29.8 °F 99% 30.37 in 5.0 mi Calm Calm - N/A   Clear
11:55 PM 29.5 °F - 29.3 °F 99% 30.36 in 10.0 mi Calm Calm - N/A   Clear